Location: *
(32.3300°N, 34.8500°E)
Time: 00:17:44
(UTC+00:00)

Cosmos 2327 Rocket - Pass Details

Date: 22 October 2019
Orbit: 943 x 1009 km, 83.0° (Epoch: 20 November)

Event Time Altitude Azimuth Distance (km) Brightness Sun altitude
Rises 01:58:01 0° 192° (SSW) 3,680 7.4 -24.2°
Reaches altitude 10° 02:00:34 10° 195° (SSW) 2,725 6.7 -23.6°
Maximum altitude 02:06:45 65° 277° (W) 1,056 4.4 -22.3°
Drops below altitude 10° 02:12:53 10° 359° (N) 2,695 6.8 -21.0°
Sets 02:15:24 0° 2° (N) 3,636 7.5 -20.5°
